Location: Killam
(52.7910°N, 111.8608°W)
Time: 05:05:55
(UTC+00:00)

Gurwin Techsat 1B - Pass Details

Date: 23 March 2026
Orbit: 809 x 812 km, 99.0° (Epoch: 15 April)

Event Time Altitude Azimuth Distance (km) Brightness Sun altitude
Rises 11:00:05 0° 30° (NNE) 3,342 12.9 -21.1°
Reaches altitude 10° 11:04:04 10° 60° (ENE) 2,403 12.3 -20.6°
Maximum altitude 11:06:11 12° 84° (E) 2,238 11.8 -20.4°
Drops below altitude 10° 11:08:19 10° 108° (ESE) 2,396 11.6 -20.1°
Sets 11:12:15 0° 137° (SE) 3,320 12.0 -19.6°
